date,time,SUV Intensity [MED/Hr],UV Index,Daily total [MED],Since Last [MED]
01/12/2022,00:03:17,0.000,0.0,0.0,0.0
01/12/2022,00:04:17,-0.001,0.0,0.0,0.0
01/12/2022,00:05:17,0.000,0.0,0.0,0.0
01/12/2022,00:06:17,0.000,0.0,0.0,0.0
01/12/2022,00:07:17,0.000,0.0,0.0,0.0
01/12/2022,00:08:17,-0.000,0.0,0.0,0.0
01/12/2022,00:09:17,0.000,0.0,0.0,0.0
01/12/2022,00:10:18,-0.000,0.0,0.0,0.0
01/12/2022,00:11:18,-0.000,0.0,0.0,0.0
01/12/2022,00:12:17,-0.000,0.0,0.0,0.0
01/12/2022,00:13:17,-0.000,0.0,0.0,0.0
01/12/2022,00:14:17,-0.000,0.0,0.0,0.0
01/12/2022,00:15:17,0.000,0.0,0.0,0.0
01/12/2022,00:16:17,0.000,0.0,0.0,0.0
01/12/2022,00:17:17,-0.000,0.0,0.0,0.0
01/12/2022,00:18:17,0.001,0.0,0.0,0.0
01/12/2022,00:19:17,-0.000,0.0,0.0,0.0
01/12/2022,00:20:17,-0.000,0.0,0.0,0.0
01/12/2022,00:21:17,-0.000,0.0,0.0,0.0
01/12/2022,00:22:17,0.000,0.0,0.0,0.0
01/12/2022,00:23:17,-0.001,0.0,0.0,0.0
01/12/2022,00:24:17,-0.000,0.0,0.0,0.0
01/12/2022,00:25:17,0.001,0.0,0.0,0.0
01/12/2022,00:26:17,-0.000,0.0,0.0,0.0
01/12/2022,00:27:17,0.000,0.0,0.0,0.0
01/12/2022,00:28:17,-0.000,0.0,0.0,0.0
01/12/2022,00:29:17,-0.001,0.0,0.0,0.0
01/12/2022,00:30:17,-0.001,0.0,0.0,0.0
01/12/2022,00:31:17,-0.001,0.0,0.0,0.0
01/12/2022,00:32:17,-0.000,0.0,0.0,0.0
01/12/2022,00:33:17,0.001,0.0,0.0,0.0
01/12/2022,00:34:17,-0.001,0.0,0.0,0.0
01/12/2022,00:35:17,0.001,0.0,0.0,0.0
01/12/2022,00:36:17,0.000,0.0,0.0,0.0
01/12/2022,00:37:17,0.000,0.0,0.0,0.0
01/12/2022,00:38:17,0.000,0.0,0.0,0.0
01/12/2022,00:39:17,-0.001,0.0,0.0,0.0
01/12/2022,00:40:17,0.000,0.0,0.0,0.0
01/12/2022,00:41:17,0.000,0.0,0.0,0.0
01/12/2022,00:42:18,0.000,0.0,0.0,0.0
01/12/2022,00:43:18,-0.000,0.0,0.0,0.0
01/12/2022,00:44:17,0.000,0.0,0.0,0.0
01/12/2022,00:45:17,-0.001,0.0,0.0,0.0
01/12/2022,00:46:17,0.000,0.0,0.0,0.0
01/12/2022,00:47:17,0.000,0.0,0.0,0.0
01/12/2022,00:48:17,0.000,0.0,0.0,0.0
01/12/2022,00:49:17,0.000,0.0,0.0,0.0
01/12/2022,00:50:17,0.000,0.0,0.0,0.0
01/12/2022,00:51:17,0.000,0.0,0.0,0.0
01/12/2022,00:52:17,0.000,0.0,0.0,0.0
01/12/2022,00:53:17,0.000,0.0,0.0,0.0
01/12/2022,00:54:17,-0.000,0.0,0.0,0.0
01/12/2022,00:55:17,0.000,0.0,0.0,0.0
01/12/2022,00:56:17,0.001,0.0,0.0,0.0
01/12/2022,00:57:17,0.001,0.0,0.0,0.0
01/12/2022,00:58:17,-0.000,0.0,0.0,0.0
01/12/2022,00:59:17,0.000,0.0,0.0,0.0
01/12/2022,01:00:17,0.000,0.0,0.0,0.0
01/12/2022,01:01:17,-0.000,0.0,0.0,0.0
01/12/2022,01:02:17,0.000,0.0,0.0,0.0
01/12/2022,01:03:17,0.001,0.0,0.0,0.0
01/12/2022,01:04:17,0.001,0.0,0.0,0.0
01/12/2022,01:05:17,0.000,0.0,0.0,0.0
01/12/2022,01:06:17,0.001,0.0,0.0,0.0
01/12/2022,01:07:17,0.000,0.0,0.0,0.0
01/12/2022,01:08:17,0.002,0.0,0.0,0.0
01/12/2022,01:09:18,0.000,0.0,0.0,0.0
01/12/2022,01:10:16,0.001,0.0,0.0,0.0
01/12/2022,01:11:39,0.001,0.0,0.0,0.0
01/12/2022,01:12:17,0.001,0.0,0.0,0.0
01/12/2022,01:13:17,0.001,0.0,0.0,0.0
01/12/2022,01:14:17,0.001,0.0,0.0,0.0
01/12/2022,01:15:17,0.001,0.0,0.0,0.0
01/12/2022,01:16:18,0.000,0.0,0.0,0.0
01/12/2022,01:17:17,-0.001,0.0,0.0,0.0
01/12/2022,01:18:18,0.001,0.0,0.0,0.0
01/12/2022,01:19:17,0.002,0.0,0.0,0.0
01/12/2022,01:20:17,0.001,0.0,0.0,0.0
01/12/2022,01:21:18,0.000,0.0,0.0,0.0
01/12/2022,01:22:17,0.000,0.0,0.0,0.0
01/12/2022,01:23:17,0.000,0.0,0.0,0.0
01/12/2022,01:24:17,0.001,0.0,0.0,0.0
01/12/2022,01:25:15,0.000,0.0,0.0,0.0
01/12/2022,01:26:18,0.000,0.0,0.0,0.0
01/12/2022,01:27:17,0.001,0.0,0.0,0.0
01/12/2022,01:28:17,-0.000,0.0,0.0,0.0
01/12/2022,01:29:17,0.000,0.0,0.0,0.0
01/12/2022,01:30:17,0.001,0.0,0.0,0.0
01/12/2022,01:31:17,0.001,0.0,0.0,0.0
01/12/2022,01:32:18,0.001,0.0,0.0,0.0
01/12/2022,01:33:17,0.001,0.0,0.0,0.0
01/12/2022,01:34:17,-0.000,0.0,0.0,0.0
01/12/2022,01:35:17,0.001,0.0,0.0,0.0
01/12/2022,01:36:18,0.001,0.0,0.0,0.0
01/12/2022,01:37:17,-0.000,0.0,0.0,0.0
01/12/2022,01:38:17,-0.000,0.0,0.0,0.0
01/12/2022,01:39:17,0.000,0.0,0.0,0.0
01/12/2022,01:40:17,0.001,0.0,0.0,0.0
01/12/2022,01:41:17,0.000,0.0,0.0,0.0
01/12/2022,01:42:17,0.001,0.0,0.0,0.0
01/12/2022,01:43:17,-0.000,0.0,0.0,0.0
01/12/2022,01:44:17,0.001,0.0,0.0,0.0
01/12/2022,01:45:17,0.001,0.0,0.0,0.0
01/12/2022,01:46:17,-0.000,0.0,0.0,0.0
01/12/2022,01:47:17,0.000,0.0,0.0,0.0
01/12/2022,01:48:17,0.001,0.0,0.0,0.0
01/12/2022,01:49:17,0.001,0.0,0.0,0.0
01/12/2022,01:50:17,0.000,0.0,0.0,0.0
01/12/2022,01:51:17,0.001,0.0,0.0,0.0
01/12/2022,01:52:17,0.000,0.0,0.0,0.0
01/12/2022,01:53:17,0.001,0.0,0.0,0.0
01/12/2022,01:54:17,0.000,0.0,0.0,0.0
01/12/2022,01:55:17,-0.000,0.0,0.0,0.0
01/12/2022,01:56:17,0.001,0.0,0.0,0.0
01/12/2022,01:57:17,-0.000,0.0,0.0,0.0
01/12/2022,01:58:17,0.001,0.0,0.0,0.0
01/12/2022,01:59:17,0.000,0.0,0.0,0.0
01/12/2022,02:00:17,0.001,0.0,0.0,0.0
01/12/2022,02:01:17,0.001,0.0,0.0,0.0
01/12/2022,02:02:17,-0.000,0.0,0.0,0.0
01/12/2022,02:03:17,0.001,0.0,0.0,0.0
01/12/2022,02:04:17,0.001,0.0,0.0,0.0
01/12/2022,02:05:17,-0.000,0.0,0.0,0.0
01/12/2022,02:06:17,0.001,0.0,0.0,0.0
01/12/2022,02:07:17,0.001,0.0,0.0,0.0
01/12/2022,02:08:18,0.000,0.0,0.0,0.0
01/12/2022,02:09:17,0.001,0.0,0.0,0.0
01/12/2022,02:10:17,0.000,0.0,0.0,0.0
01/12/2022,02:11:17,-0.000,0.0,0.0,0.0
01/12/2022,02:12:17,0.001,0.0,0.0,0.0
01/12/2022,02:13:17,0.001,0.0,0.0,0.0
01/12/2022,02:14:18,0.001,0.0,0.0,0.0
01/12/2022,02:15:17,0.001,0.0,0.0,0.0
01/12/2022,02:16:17,0.001,0.0,0.0,0.0
01/12/2022,02:17:17,0.002,0.0,0.0,0.0
01/12/2022,02:18:17,0.001,0.0,0.0,0.0
01/12/2022,02:19:18,0.001,0.0,0.0,0.0
01/12/2022,02:20:17,0.001,0.0,0.0,0.0
01/12/2022,02:21:17,0.000,0.0,0.0,0.0
01/12/2022,02:22:17,0.001,0.0,0.0,0.0
01/12/2022,02:23:17,0.000,0.0,0.0,0.0
01/12/2022,02:24:17,0.001,0.0,0.0,0.0
01/12/2022,02:25:17,0.001,0.0,0.0,0.0
01/12/2022,02:26:18,0.001,0.0,0.0,0.0
01/12/2022,02:27:18,0.001,0.0,0.0,0.0
01/12/2022,02:28:17,-0.000,0.0,0.0,0.0
01/12/2022,02:29:17,0.001,0.0,0.0,0.0
01/12/2022,02:30:17,0.001,0.0,0.0,0.0
01/12/2022,02:31:18,0.001,0.0,0.0,0.0
01/12/2022,02:32:17,0.001,0.0,0.0,0.0
01/12/2022,02:33:18,0.000,0.0,0.0,0.0
01/12/2022,02:34:17,0.002,0.0,0.0,0.0
01/12/2022,02:35:17,-0.000,0.0,0.0,0.0
01/12/2022,02:36:17,0.001,0.0,0.0,0.0
01/12/2022,02:37:17,0.000,0.0,0.0,0.0
01/12/2022,02:38:17,0.001,0.0,0.0,0.0
01/12/2022,02:39:17,0.001,0.0,0.0,0.0
01/12/2022,02:40:17,0.001,0.0,0.0,0.0
01/12/2022,02:41:17,0.001,0.0,0.0,0.0
01/12/2022,02:42:17,-0.000,0.0,0.0,0.0
01/12/2022,02:43:17,0.001,0.0,0.0,0.0
01/12/2022,02:44:17,0.001,0.0,0.0,0.0
01/12/2022,02:45:17,0.002,0.0,0.0,0.0
01/12/2022,02:46:17,-0.000,0.0,0.0,0.0
01/12/2022,02:47:17,0.001,0.0,0.0,0.0
01/12/2022,02:48:17,0.001,0.0,0.0,0.0
01/12/2022,02:49:17,0.000,0.0,0.0,0.0
01/12/2022,02:50:17,0.001,0.0,0.0,0.0
01/12/2022,02:51:17,0.001,0.0,0.0,0.0
01/12/2022,02:52:18,0.001,0.0,0.0,0.0
01/12/2022,02:53:17,0.001,0.0,0.0,0.0
01/12/2022,02:54:17,0.001,0.0,0.0,0.0
01/12/2022,02:55:17,0.000,0.0,0.0,0.0
01/12/2022,02:56:17,0.002,0.0,0.0,0.0
01/12/2022,02:57:18,0.001,0.0,0.0,0.0
01/12/2022,02:58:17,0.001,0.0,0.0,0.0
01/12/2022,02:59:18,0.001,0.0,0.0,0.0
01/12/2022,03:00:17,0.001,0.0,0.0,0.0
01/12/2022,03:01:17,0.000,0.0,0.0,0.0
01/12/2022,03:02:17,0.002,0.0,0.0,0.0
01/12/2022,03:03:17,0.001,0.0,0.0,0.0
01/12/2022,03:04:17,0.002,0.0,0.0,0.0
01/12/2022,03:05:17,0.001,0.0,0.0,0.0
01/12/2022,03:06:17,0.002,0.0,0.0,0.0
01/12/2022,03:07:17,0.001,0.0,0.0,0.0
01/12/2022,03:08:18,0.001,0.0,0.0,0.0
01/12/2022,03:09:17,0.000,0.0,0.0,0.0
01/12/2022,03:10:18,0.001,0.0,0.0,0.0
01/12/2022,03:11:17,0.002,0.0,0.0,0.0
01/12/2022,03:12:17,0.000,0.0,0.0,0.0
01/12/2022,03:13:17,0.002,0.0,0.0,0.0
01/12/2022,03:14:17,0.000,0.0,0.0,0.0
01/12/2022,03:15:17,0.000,0.0,0.0,0.0
01/12/2022,03:16:17,0.001,0.0,0.0,0.0
01/12/2022,03:17:17,0.002,0.0,0.0,0.0
01/12/2022,03:18:17,0.002,0.0,0.0,0.0
01/12/2022,03:19:17,0.002,0.0,0.0,0.0
01/12/2022,03:20:18,0.001,0.0,0.0,0.0
01/12/2022,03:21:17,-0.000,0.0,0.0,0.0
01/12/2022,03:22:18,0.002,0.0,0.0,0.0
01/12/2022,03:23:17,0.000,0.0,0.0,0.0
01/12/2022,03:24:17,0.001,0.0,0.0,0.0
01/12/2022,03:25:17,0.001,0.0,0.0,0.0
01/12/2022,03:26:17,0.001,0.0,0.0,0.0
01/12/2022,03:27:17,0.001,0.0,0.0,0.0
01/12/2022,03:28:17,-0.000,0.0,0.0,0.0
01/12/2022,03:29:17,0.000,0.0,0.0,0.0
01/12/2022,03:30:17,0.001,0.0,0.0,0.0
01/12/2022,03:31:17,0.001,0.0,0.0,0.0
01/12/2022,03:32:17,0.002,0.0,0.0,0.0
01/12/2022,03:33:17,0.001,0.0,0.0,0.0
01/12/2022,03:34:17,0.001,0.0,0.0,0.0
01/12/2022,03:35:17,0.001,0.0,0.0,0.0
01/12/2022,03:36:17,0.001,0.0,0.0,0.0
01/12/2022,03:37:17,0.000,0.0,0.0,0.0
01/12/2022,03:38:17,0.001,0.0,0.0,0.0
01/12/2022,03:39:18,0.001,0.0,0.0,0.0
01/12/2022,03:40:17,0.001,0.0,0.0,0.0
01/12/2022,03:41:18,-0.000,0.0,0.0,0.0
01/12/2022,03:42:17,0.001,0.0,0.0,0.0
01/12/2022,03:43:18,0.001,0.0,0.0,0.0
01/12/2022,03:44:17,0.002,0.0,0.0,0.0
01/12/2022,03:45:18,0.001,0.0,0.0,0.0
01/12/2022,03:46:18,0.000,0.0,0.0,0.0
01/12/2022,03:47:18,0.002,0.0,0.0,0.0
01/12/2022,03:48:18,-0.000,0.0,0.0,0.0
01/12/2022,03:49:17,0.000,0.0,0.0,0.0
01/12/2022,03:50:18,0.001,0.0,0.0,0.0
01/12/2022,03:51:17,0.000,0.0,0.0,0.0
01/12/2022,03:52:17,0.001,0.0,0.0,0.0
01/12/2022,03:53:18,-0.000,0.0,0.0,0.0
01/12/2022,03:54:17,0.001,0.0,0.0,0.0
01/12/2022,03:55:17,0.000,0.0,0.0,0.0
01/12/2022,03:56:19,0.001,0.0,0.0,0.0
01/12/2022,03:57:17,0.001,0.0,0.0,0.0
01/12/2022,03:58:17,0.000,0.0,0.0,0.0
01/12/2022,03:59:18,0.002,0.0,0.0,0.0
01/12/2022,04:00:17,0.001,0.0,0.0,0.0
01/12/2022,04:01:17,0.001,0.0,0.0,0.0
01/12/2022,04:02:17,0.000,0.0,0.0,0.0
01/12/2022,04:03:17,0.001,0.0,0.0,0.0
01/12/2022,04:04:17,0.001,0.0,0.0,0.0
01/12/2022,04:05:18,0.001,0.0,0.0,0.0
01/12/2022,04:06:17,0.001,0.0,0.0,0.0
01/12/2022,04:07:18,0.000,0.0,0.0,0.0
01/12/2022,04:08:17,0.002,0.0,0.0,0.0
01/12/2022,04:09:17,0.001,0.0,0.0,0.0
01/12/2022,04:10:18,0.000,0.0,0.0,0.0
01/12/2022,04:11:17,0.002,0.0,0.0,0.0
01/12/2022,04:12:17,0.002,0.0,0.0,0.0
01/12/2022,04:13:18,0.001,0.0,0.0,0.0
01/12/2022,04:14:17,0.001,0.0,0.0,0.0
01/12/2022,04:15:18,0.001,0.0,0.0,0.0
01/12/2022,04:16:17,0.001,0.0,0.0,0.0
01/12/2022,04:17:17,0.001,0.0,0.0,0.0
01/12/2022,04:18:18,0.001,0.0,0.0,0.0
01/12/2022,04:19:17,0.000,0.0,0.0,0.0
01/12/2022,04:20:17,0.001,0.0,0.0,0.0
01/12/2022,04:21:18,0.000,0.0,0.0,0.0
01/12/2022,04:22:17,0.001,0.0,0.0,0.0
01/12/2022,04:23:18,0.001,0.0,0.0,0.0
01/12/2022,04:24:17,-0.000,0.0,0.0,0.0
01/12/2022,04:25:17,0.002,0.0,0.0,0.0
01/12/2022,04:26:17,0.000,0.0,0.0,0.0
01/12/2022,04:27:18,0.001,0.0,0.0,0.0
01/12/2022,04:28:17,0.001,0.0,0.0,0.0
01/12/2022,04:29:17,0.001,0.0,0.0,0.0
01/12/2022,04:30:17,0.001,0.0,0.0,0.0
01/12/2022,04:31:17,0.001,0.0,0.0,0.0
01/12/2022,04:32:17,0.001,0.0,0.0,0.0
01/12/2022,04:33:17,0.000,0.0,0.0,0.0
01/12/2022,04:34:17,0.001,0.0,0.0,0.0
01/12/2022,04:35:17,0.001,0.0,0.0,0.0
01/12/2022,04:36:17,0.001,0.0,0.0,0.0
01/12/2022,04:37:17,0.001,0.0,0.0,0.0
01/12/2022,04:38:17,0.001,0.0,0.0,0.0
01/12/2022,04:39:17,0.001,0.0,0.0,0.0
01/12/2022,04:40:18,0.000,0.0,0.0,0.0
01/12/2022,04:41:17,0.001,0.0,0.0,0.0
01/12/2022,04:42:17,0.001,0.0,0.0,0.0
01/12/2022,04:43:17,0.001,0.0,0.0,0.0
01/12/2022,04:44:18,0.000,0.0,0.0,0.0
01/12/2022,04:45:18,0.001,0.0,0.0,0.0
01/12/2022,04:46:17,0.001,0.0,0.0,0.0
01/12/2022,04:47:18,0.001,0.0,0.0,0.0
01/12/2022,04:48:18,0.001,0.0,0.0,0.0
01/12/2022,04:49:17,0.001,0.0,0.0,0.0
01/12/2022,04:50:17,0.001,0.0,0.0,0.0
01/12/2022,04:51:18,0.000,0.0,0.0,0.0
01/12/2022,04:52:17,0.001,0.0,0.0,0.0
01/12/2022,04:53:18,0.001,0.0,0.0,0.0
01/12/2022,04:54:17,0.001,0.0,0.0,0.0
01/12/2022,04:55:17,0.000,0.0,0.0,0.0
01/12/2022,04:56:18,0.002,0.0,0.0,0.0
01/12/2022,04:57:17,0.001,0.0,0.0,0.0
01/12/2022,04:58:18,0.001,0.0,0.0,0.0
01/12/2022,04:59:17,0.001,0.0,0.0,0.0
01/12/2022,05:00:17,0.001,0.0,0.0,0.0
01/12/2022,05:01:17,0.001,0.0,0.0,0.0
01/12/2022,05:02:17,0.001,0.0,0.0,0.0
01/12/2022,05:03:17,0.002,0.0,0.0,0.0
01/12/2022,05:04:18,0.000,0.0,0.0,0.0
01/12/2022,05:05:18,-0.000,0.0,0.0,0.0
01/12/2022,05:06:17,0.001,0.0,0.0,0.0
01/12/2022,05:07:18,-0.000,0.0,0.0,0.0
01/12/2022,05:08:18,0.000,0.0,0.0,0.0
01/12/2022,05:09:18,0.001,0.0,0.0,0.0
01/12/2022,05:10:18,0.000,0.0,0.0,0.0
01/12/2022,05:11:17,0.000,0.0,0.0,0.0
01/12/2022,05:12:18,0.001,0.0,0.0,0.0
01/12/2022,05:13:18,-0.000,0.0,0.0,0.0
01/12/2022,05:14:18,0.001,0.0,0.0,0.0
01/12/2022,05:15:17,0.001,0.0,0.0,0.0
01/12/2022,05:16:17,0.000,0.0,0.0,0.0
01/12/2022,05:17:17,0.002,0.0,0.0,0.0
01/12/2022,05:18:17,0.002,0.0,0.0,0.0
01/12/2022,05:19:17,0.001,0.0,0.0,0.0
01/12/2022,05:20:17,0.000,0.0,0.0,0.0
01/12/2022,05:21:18,0.001,0.0,0.0,0.0
01/12/2022,05:22:17,0.000,0.0,0.0,0.0
01/12/2022,05:23:17,-0.000,0.0,0.0,0.0
01/12/2022,05:24:17,0.001,0.0,0.0,0.0
01/12/2022,05:25:17,0.001,0.0,0.0,0.0
01/12/2022,05:26:18,-0.000,0.0,0.0,0.0
01/12/2022,05:27:18,0.000,0.0,0.0,0.0
01/12/2022,05:28:18,0.001,0.0,0.0,0.0
01/12/2022,05:29:17,0.001,0.0,0.0,0.0
01/12/2022,05:30:18,-0.000,0.0,0.0,0.0
01/12/2022,05:31:17,0.001,0.0,0.0,0.0
01/12/2022,05:32:17,0.001,0.0,0.0,0.0
01/12/2022,05:33:17,0.002,0.0,0.0,0.0
01/12/2022,05:34:17,0.000,0.0,0.0,0.0
01/12/2022,05:35:18,0.001,0.0,0.0,0.0
01/12/2022,05:36:18,0.001,0.0,0.0,0.0
01/12/2022,05:37:17,-0.000,0.0,0.0,0.0
01/12/2022,05:38:18,0.001,0.0,0.0,0.0
01/12/2022,05:39:17,0.001,0.0,0.0,0.0
01/12/2022,05:40:17,0.001,0.0,0.0,0.0
01/12/2022,05:41:18,0.001,0.0,0.0,0.0
01/12/2022,05:42:18,0.001,0.0,0.0,0.0
01/12/2022,05:43:18,0.001,0.0,0.0,0.0
01/12/2022,05:44:17,-0.000,0.0,0.0,0.0
01/12/2022,05:45:17,0.002,0.0,0.0,0.0
01/12/2022,05:46:17,0.001,0.0,0.0,0.0
01/12/2022,05:47:17,0.001,0.0,0.0,0.0
01/12/2022,05:48:17,0.001,0.0,0.0,0.0
01/12/2022,05:49:17,0.001,0.0,0.0,0.0
01/12/2022,05:50:18,0.000,0.0,0.0,0.0
01/12/2022,05:51:18,-0.000,0.0,0.0,0.0
01/12/2022,05:52:21,0.001,0.0,0.0,0.0
01/12/2022,05:53:18,0.000,0.0,0.0,0.0
01/12/2022,05:54:18,0.001,0.0,0.0,0.0
01/12/2022,05:55:17,0.001,0.0,0.0,0.0
01/12/2022,05:56:17,0.000,0.0,0.0,0.0
01/12/2022,05:57:18,0.001,0.0,0.0,0.0
01/12/2022,05:58:17,0.000,0.0,0.0,0.0
01/12/2022,05:59:17,0.002,0.0,0.0,0.0
01/12/2022,06:00:17,0.001,0.0,0.0,0.0
01/12/2022,06:01:17,-0.000,0.0,0.0,0.0
01/12/2022,06:02:17,0.001,0.0,0.0,0.0
01/12/2022,06:03:18,0.001,0.0,0.0,0.0
01/12/2022,06:04:17,0.000,0.0,0.0,0.0
01/12/2022,06:05:17,-0.000,0.0,0.0,0.0
01/12/2022,06:06:18,0.001,0.0,0.0,0.0
01/12/2022,06:07:18,0.001,0.0,0.0,0.0
01/12/2022,06:08:18,0.001,0.0,0.0,0.0
01/12/2022,06:09:18,0.001,0.0,0.0,0.0
01/12/2022,06:10:17,0.002,0.0,0.0,0.0
01/12/2022,06:11:17,0.001,0.0,0.0,0.0
01/12/2022,06:12:17,-0.000,0.0,0.0,0.0
01/12/2022,06:13:17,0.001,0.0,0.0,0.0
01/12/2022,06:14:18,0.001,0.0,0.0,0.0
01/12/2022,06:15:17,0.001,0.0,0.0,0.0
01/12/2022,06:16:18,0.000,0.0,0.0,0.0
01/12/2022,06:17:17,-0.000,0.0,0.0,0.0
01/12/2022,06:18:17,0.001,0.0,0.0,0.0
01/12/2022,06:19:17,0.001,0.0,0.0,0.0
01/12/2022,06:20:18,0.001,0.0,0.0,0.0
01/12/2022,06:21:17,-0.000,0.0,0.0,0.0
01/12/2022,06:22:17,0.001,0.0,0.0,0.0
01/12/2022,06:23:18,-0.000,0.0,0.0,0.0
01/12/2022,06:24:18,-0.000,0.0,0.0,0.0
01/12/2022,06:25:18,-0.001,0.0,0.0,0.0
01/12/2022,06:26:17,-0.000,0.0,0.0,0.0
01/12/2022,06:27:17,0.001,0.0,0.0,0.0
01/12/2022,06:28:18,0.001,0.0,0.0,0.0
01/12/2022,06:29:17,0.001,0.0,0.0,0.0
01/12/2022,06:30:18,0.000,0.0,0.0,0.0
01/12/2022,06:31:17,0.000,0.0,0.0,0.0
01/12/2022,06:32:17,0.001,0.0,0.0,0.0
01/12/2022,06:33:18,0.001,0.0,0.0,0.0
01/12/2022,06:34:17,0.001,0.0,0.0,0.0
01/12/2022,06:35:18,0.000,0.0,0.0,0.0
01/12/2022,06:36:18,0.000,0.0,0.0,0.0
01/12/2022,06:37:18,0.000,0.0,0.0,0.0
01/12/2022,06:38:18,0.000,0.0,0.0,0.0
01/12/2022,06:39:17,0.000,0.0,0.0,0.0
01/12/2022,06:40:18,0.000,0.0,0.0,0.0
01/12/2022,06:41:17,0.000,0.0,0.0,0.0
01/12/2022,06:42:17,0.000,0.0,0.0,0.0
01/12/2022,06:43:18,0.000,0.0,0.0,0.0
01/12/2022,06:44:18,0.000,0.0,0.0,0.0
01/12/2022,06:45:17,0.000,0.0,0.0,0.0
01/12/2022,06:46:17,-0.000,0.0,0.0,0.0
01/12/2022,06:47:18,0.000,0.0,0.0,0.0
01/12/2022,06:48:18,0.001,0.0,0.0,0.0
01/12/2022,06:49:18,0.000,0.0,0.0,0.0
01/12/2022,06:50:17,0.000,0.0,0.0,0.0
01/12/2022,06:51:17,0.000,0.0,0.0,0.0
01/12/2022,06:52:18,-0.000,0.0,0.0,0.0
01/12/2022,06:53:17,-0.001,0.0,0.0,0.0
01/12/2022,06:54:18,0.000,0.0,0.0,0.0
01/12/2022,06:55:17,0.000,0.0,0.0,0.0
01/12/2022,06:56:18,0.000,0.0,0.0,0.0
01/12/2022,06:57:18,-0.001,0.0,0.0,0.0
01/12/2022,06:58:18,0.000,0.0,0.0,0.0
01/12/2022,06:59:18,0.001,0.0,0.0,0.0
01/12/2022,07:00:17,0.000,0.0,0.0,0.0
01/12/2022,07:01:18,0.001,0.0,0.0,0.0
01/12/2022,07:02:17,0.000,0.0,0.0,0.0
01/12/2022,07:03:18,-0.001,0.0,0.0,0.0
01/12/2022,07:04:17,-0.001,0.0,0.0,0.0
01/12/2022,07:05:17,0.001,0.0,0.0,0.0
01/12/2022,07:06:18,-0.001,0.0,0.0,0.0
01/12/2022,07:07:18,0.000,0.0,0.0,0.0
01/12/2022,07:08:18,0.000,0.0,0.0,0.0
01/12/2022,07:09:18,-0.001,0.0,0.0,0.0
01/12/2022,07:10:18,0.000,0.0,0.0,0.0
01/12/2022,07:11:18,0.000,0.0,0.0,0.0
01/12/2022,07:12:18,-0.001,0.0,0.0,0.0
01/12/2022,07:13:17,-0.001,0.0,0.0,0.0
01/12/2022,07:14:18,0.000,0.0,0.0,0.0
01/12/2022,07:15:18,-0.000,0.0,0.0,0.0
01/12/2022,07:16:18,0.000,0.0,0.0,0.0
01/12/2022,07:17:18,0.000,0.0,0.0,0.0
01/12/2022,07:18:18,0.001,0.0,0.0,0.0
01/12/2022,07:19:17,-0.001,0.0,0.0,0.0
01/12/2022,07:20:18,-0.001,0.0,0.0,0.0
01/12/2022,07:21:18,0.001,0.0,0.0,0.0
01/12/2022,07:22:18,0.000,0.0,0.0,0.0
01/12/2022,07:23:18,0.001,0.0,0.0,0.0
01/12/2022,07:24:18,0.000,0.0,0.0,0.0
01/12/2022,07:25:18,0.000,0.0,0.0,0.0
01/12/2022,07:26:17,-0.000,0.0,0.0,0.0
01/12/2022,07:27:18,0.001,0.0,0.0,0.0
01/12/2022,07:28:18,0.000,0.0,0.0,0.0
01/12/2022,07:29:18,0.000,0.0,0.0,0.0
01/12/2022,07:30:18,-0.000,0.0,0.0,0.0
01/12/2022,07:31:18,0.001,0.0,0.0,0.0
01/12/2022,07:32:17,0.000,0.0,0.0,0.0
01/12/2022,07:33:18,0.000,0.0,0.0,0.0
01/12/2022,07:34:18,0.000,0.0,0.0,0.0
01/12/2022,07:35:17,0.000,0.0,0.0,0.0
01/12/2022,07:36:17,0.001,0.0,0.0,0.0
01/12/2022,07:37:18,0.000,0.0,0.0,0.0
01/12/2022,07:38:17,0.001,0.0,0.0,0.0
01/12/2022,07:39:18,0.001,0.0,0.0,0.0
01/12/2022,07:40:18,0.002,0.0,0.0,0.0
01/12/2022,07:41:18,0.002,0.0,0.0,0.0
01/12/2022,07:42:17,0.001,0.0,0.0,0.0
01/12/2022,07:43:18,0.001,0.0,0.0,0.0
01/12/2022,07:44:17,0.002,0.0,0.0,0.0
01/12/2022,07:45:18,0.001,0.0,0.0,0.0
01/12/2022,07:46:18,0.001,0.0,0.0,0.0
01/12/2022,07:47:18,0.001,0.0,0.0,0.0
01/12/2022,07:48:17,0.001,0.0,0.0,0.0
01/12/2022,07:49:18,0.002,0.0,0.0,0.0
01/12/2022,07:50:18,0.001,0.0,0.0,0.0
01/12/2022,07:51:18,0.001,0.0,0.0,0.0
01/12/2022,07:52:18,0.002,0.0,0.0,0.0
01/12/2022,07:53:17,0.003,0.0,0.0,0.0
01/12/2022,07:54:18,0.002,0.0,0.0,0.0
01/12/2022,07:55:18,0.003,0.0,0.0,0.0
01/12/2022,07:56:18,0.003,0.0,0.0,0.0
01/12/2022,07:57:18,0.003,0.0,0.0,0.0
01/12/2022,07:58:18,0.003,0.0,0.0,0.0
01/12/2022,07:59:18,0.003,0.0,0.0,0.0
01/12/2022,08:00:18,0.003,0.0,0.0,0.0
01/12/2022,08:01:17,0.003,0.0,0.0,0.0
01/12/2022,08:02:18,0.003,0.0,0.0,0.0
01/12/2022,08:03:18,0.005,0.0,0.0,0.0
01/12/2022,08:04:18,0.004,0.0,0.0,0.0
01/12/2022,08:05:18,0.003,0.0,0.0,0.0
01/12/2022,08:06:18,0.004,0.0,0.0,0.0
01/12/2022,08:07:18,0.005,0.0,0.0,0.0
01/12/2022,08:08:18,0.006,0.0,0.0,0.0
01/12/2022,08:09:17,0.004,0.0,0.0,0.0
01/12/2022,08:10:17,0.004,0.0,0.0,0.0
01/12/2022,08:11:17,0.006,0.0,0.0,0.0
01/12/2022,08:12:18,0.007,0.0,0.0,0.0
01/12/2022,08:13:17,0.007,0.0,0.0,0.0
01/12/2022,08:14:17,0.006,0.0,0.0,0.0
01/12/2022,08:15:18,0.007,0.0,0.0,0.0
01/12/2022,08:16:18,0.007,0.0,0.0,0.0
01/12/2022,08:17:17,0.007,0.0,0.0,0.0
01/12/2022,08:18:17,0.007,0.0,0.001,0.001
01/12/2022,08:19:18,0.007,0.0,0.001,0.0
01/12/2022,08:20:18,0.008,0.0,0.001,0.0
01/12/2022,08:21:18,0.008,0.0,0.001,0.0
01/12/2022,08:22:18,0.007,0.0,0.001,0.0
01/12/2022,08:23:18,0.008,0.0,0.001,0.0
01/12/2022,08:24:18,0.009,0.0,0.001,0.0
01/12/2022,08:25:18,0.009,0.0,0.002,0.001
01/12/2022,08:26:18,0.010,0.0,0.002,0.0
01/12/2022,08:27:18,0.010,0.0,0.002,0.0
01/12/2022,08:28:18,0.011,0.0,0.002,0.0
01/12/2022,08:29:18,0.012,0.0,0.002,0.0
01/12/2022,08:30:17,0.012,0.0,0.002,0.0
01/12/2022,08:31:18,0.012,0.0,0.003,0.001
01/12/2022,08:32:18,0.013,0.0,0.003,0.0
01/12/2022,08:33:18,0.013,0.0,0.003,0.0
01/12/2022,08:34:18,0.014,0.0,0.003,0.0
01/12/2022,08:35:18,0.014,0.0,0.003,0.0
01/12/2022,08:36:18,0.013,0.0,0.004,0.001
01/12/2022,08:37:17,0.014,0.0,0.004,0.0
01/12/2022,08:38:18,0.016,0.0,0.004,0.0
01/12/2022,08:39:18,0.015,0.0,0.004,0.0
01/12/2022,08:40:18,0.016,0.0,0.005,0.001
01/12/2022,08:41:18,0.016,0.0,0.005,0.0
01/12/2022,08:42:18,0.016,0.0,0.005,0.0
01/12/2022,08:43:18,0.016,0.0,0.006,0.001
01/12/2022,08:44:18,0.017,0.0,0.006,0.0
01/12/2022,08:45:18,0.018,0.0,0.006,0.0
01/12/2022,08:46:18,0.018,0.0,0.006,0.0
01/12/2022,08:47:18,0.019,0.0,0.007,0.001
01/12/2022,08:48:18,0.017,0.0,0.007,0.0
01/12/2022,08:49:18,0.018,0.0,0.007,0.0
01/12/2022,08:50:18,0.019,0.0,0.008,0.001
01/12/2022,08:51:18,0.018,0.0,0.008,0.0
01/12/2022,08:52:17,0.019,0.0,0.008,0.0
01/12/2022,08:53:18,0.020,0.0,0.009,0.001
01/12/2022,08:54:18,0.021,0.0,0.009,0.0
01/12/2022,08:55:18,0.022,0.0,0.009,0.0
01/12/2022,08:56:18,0.022,0.0,0.01,0.001
01/12/2022,08:57:18,0.023,0.0,0.01,0.0
01/12/2022,08:58:18,0.024,0.0,0.01,0.0
01/12/2022,08:59:18,0.025,0.0,0.011,0.001
01/12/2022,09:00:18,0.024,0.0,0.011,0.0
01/12/2022,09:01:17,0.025,0.0,0.012,0.001
01/12/2022,09:02:18,0.025,0.0,0.012,0.0
01/12/2022,09:03:18,0.026,0.0,0.012,0.0
01/12/2022,09:04:18,0.027,0.0,0.013,0.001
01/12/2022,09:05:18,0.028,0.0,0.013,0.0
01/12/2022,09:06:18,0.028,0.0,0.014,0.001
01/12/2022,09:07:18,0.030,0.0,0.014,0.0
01/12/2022,09:08:18,0.031,0.0,0.015,0.001
01/12/2022,09:09:18,0.030,0.0,0.015,0.0
01/12/2022,09:10:18,0.031,0.0,0.016,0.001
01/12/2022,09:11:17,0.031,0.0,0.016,0.0
01/12/2022,09:12:18,0.032,0.0,0.017,0.001
01/12/2022,09:13:18,0.032,0.0,0.017,0.0
01/12/2022,09:14:17,0.033,0.0,0.018,0.001
01/12/2022,09:15:17,0.033,0.0,0.018,0.0
01/12/2022,09:16:17,0.033,0.0,0.019,0.001
01/12/2022,09:17:18,0.034,0.0,0.02,0.001
01/12/2022,09:18:18,0.033,0.0,0.02,0.0
01/12/2022,09:19:18,0.036,0.0,0.021,0.001
01/12/2022,09:20:18,0.036,0.0,0.021,0.0
01/12/2022,09:21:18,0.036,0.0,0.022,0.001
01/12/2022,09:22:18,0.037,0.0,0.023,0.001
01/12/2022,09:23:18,0.036,0.0,0.023,0.0
01/12/2022,09:24:19,0.037,0.0,0.024,0.001
01/12/2022,09:25:18,0.038,0.0,0.024,0.0
01/12/2022,09:26:18,0.040,0.0,0.025,0.001
01/12/2022,09:27:17,0.041,0.0,0.026,0.001
01/12/2022,09:28:18,0.040,0.0,0.026,0.0
01/12/2022,09:29:17,0.039,0.0,0.027,0.001
01/12/2022,09:30:18,0.041,0.0,0.028,0.001
01/12/2022,09:31:17,0.041,0.0,0.028,0.0
01/12/2022,09:32:18,0.041,0.0,0.029,0.001
01/12/2022,09:33:18,0.041,0.0,0.03,0.001
01/12/2022,09:34:18,0.042,0.0,0.03,0.0
01/12/2022,09:35:18,0.044,0.0,0.031,0.001
01/12/2022,09:36:18,0.043,0.0,0.032,0.001
01/12/2022,09:37:18,0.045,0.0,0.033,0.001
01/12/2022,09:38:18,0.044,0.0,0.033,0.0
01/12/2022,09:39:17,0.045,0.0,0.034,0.001
01/12/2022,09:40:17,0.047,0.0,0.035,0.001
01/12/2022,09:41:18,0.048,0.0,0.036,0.001
01/12/2022,09:42:18,0.049,0.0,0.036,0.0
01/12/2022,09:43:18,0.052,0.0,0.037,0.001
01/12/2022,09:44:18,0.049,0.0,0.038,0.001
01/12/2022,09:45:18,0.046,0.0,0.039,0.001
01/12/2022,09:46:18,0.047,0.0,0.04,0.001
01/12/2022,09:47:18,0.047,0.0,0.041,0.001
01/12/2022,09:48:18,0.046,0.0,0.041,0.0
01/12/2022,09:49:18,0.046,0.0,0.042,0.001
01/12/2022,09:50:18,0.049,0.0,0.043,0.001
01/12/2022,09:51:18,0.053,0.0,0.044,0.001
01/12/2022,09:52:18,0.055,0.0,0.045,0.001
01/12/2022,09:53:17,0.058,0.0,0.046,0.001
01/12/2022,09:54:18,0.058,0.0,0.047,0.001
01/12/2022,09:55:18,0.058,0.0,0.047,0.0
01/12/2022,09:56:17,0.059,0.0,0.048,0.001
01/12/2022,09:57:18,0.058,0.0,0.049,0.001
01/12/2022,09:58:18,0.058,0.0,0.05,0.001
01/12/2022,09:59:18,0.063,0.0,0.051,0.001
01/12/2022,10:00:18,0.064,0.0,0.052,0.001
01/12/2022,10:01:18,0.065,0.0,0.054,0.002
01/12/2022,10:02:18,0.064,0.0,0.055,0.001
01/12/2022,10:03:17,0.065,0.0,0.056,0.001
01/12/2022,10:04:18,0.066,0.0,0.057,0.001
01/12/2022,10:05:18,0.068,0.0,0.058,0.001
01/12/2022,10:06:18,0.065,0.0,0.059,0.001
01/12/2022,10:07:18,0.068,0.0,0.06,0.001
01/12/2022,10:08:18,0.067,0.0,0.061,0.001
01/12/2022,10:09:18,0.066,0.0,0.062,0.001
01/12/2022,10:10:18,0.069,0.0,0.063,0.001
01/12/2022,10:11:18,0.069,0.0,0.065,0.002
01/12/2022,10:12:18,0.068,0.0,0.066,0.001
01/12/2022,10:13:18,0.071,0.0,0.067,0.001
01/12/2022,10:14:18,0.074,0.0,0.068,0.001
01/12/2022,10:15:18,0.074,0.0,0.069,0.001
01/12/2022,10:16:18,0.075,0.0,0.071,0.002
01/12/2022,10:17:18,0.074,0.0,0.072,0.001
01/12/2022,10:18:18,0.075,0.0,0.073,0.001
01/12/2022,10:19:18,0.074,0.0,0.074,0.001